Wind_Speed
9 10 9 10 10 12 12 14 15 16 17 18 16 12 10 8 8 8 9 10 9 9 9 8 10 11 3 2 4 4 4 4 4 7 7 3 4 2 2 4 5 4 4 6 9 13 13
9 9 10 10 11 13 13 15 16 17 19 20 18 12 13 12 11 10 10 9 8 8 7 7 8 7 2 2 3 4 4 5 4 4 3 2 1 2 3 3 1 3 8 14 10 11 7
8 10 10 11 12 13 14 15 16 18 19 21 18 14 15 13 12 11 10 9 7 6 6 5 5 4 1 6 3 5 5 6 6 5 2 2 2 2 2 5 3 5 7 8 4 3 6
9 10 11 12 13 14 15 15 17 18 19 20 20 16 15 14 12 11 10 9 7 5 4 4 4 2 5 4 6 9 8 8 6 6 8 7 2 1 2 5 6 4 1 5 5 4 6
10 11 12 12 13 14 15 16 16 17 18 19 20 19 16 15 13 12 12 9 5 3 3 3 2 1 6 3 5 4 8 4 6 3 5 5 1 1 4 2 4 4 5 5 9 4 3
10 11 12 13 13 15 15 16 17 18 18 19 20 21 18 16 14 13 12 8 2 2 2 1 1 2 4 2 3 3 4 5 1 4 2 2 3 2 2 3 3 7 6 6 10 5 4
11 11 13 13 13 15 17 18 19 20 21 20 20 21 20 18 12 13 11 2 5 2 1 5 2 3 3 5 7 2 1 1 0 3 1 1 2 6 9 7 6 5 5 11 17 13 4
13 14 15 15 16 17 18 19 20 20 22 22 21 21 22 19 9 11 8 5 2 2 6 5 6 6 7 1 3 2 2 1 1 3 2 3 6 6 5 7 6 6 7 9 10 3 3
14 15 16 17 18 18 19 20 20 21 23 23 22 21 22 19 6 7 9 5 3 1 1 5 4 3 2 2 3 3 5 1 3 2 3 5 6 6 3 6 5 4 5 5 6 10 2
14 15 16 17 18 19 20 21 22 23 24 25 23 22 21 17 3 7 3 6 4 2 4 3 2 2 2 2 3 2 2 1 2 3 5 6 4 4 4 6 1 6 4 5 8 4 3
12 13 13 14 15 16 17 18 21 23 24 25 26 23 20 11 5 2 4 5 4 1 3 1 2 2 2 2 4 0 1 3 3 3 4 6 3 5 4 3 1 10 6 7 2 2 3
12 12 13 14 16 18 17 17 18 21 23 25 27 23 20 7 6 2 5 4 1 5 5 1 1 1 3 1 2 0 0 1 1 2 3 7 4 3 4 5 4 9 4 3 3 2 2
13 14 16 17 17 18 18 18 18 20 22 24 26 22 15 8 3 5 4 2 5 4 2 2 2 2 0 3 3 1 2 3 1 5 6 6 3 3 1 6 2 8 6 4 6 5 4
13 14 15 17 18 19 19 20 21 21 21 22 26 22 11 7 5 2 1 5 2 4 5 2 1 1 3 2 3 1 2 3 2 3 2 3 8 2 1 1 3 3 3 4 4 3 5
14 14 15 16 17 19 19 20 21 22 20 21 24 15 7 2 3 3 4 3 7 6 2 1 1 1 2 1 1 2 3 4 6 7 3 1 6 4 2 1 3 2 2 2 2 1 2
13 14 15 16 17 19 21 22 23 23 20 18 16 9 5 3 3 3 3 6 5 4 3 1 4 5 4 2 1 1 2 4 3 6 2 2 5 2 4 1 1 1 1 2 2 4 5
14 15 15 16 17 18 19 22 24 26 20 12 6 4 0 2 4 4 4 7 5 4 4 6 5 3 6 3 5 3 4 4 5 4 3 5 3 6 2 3 2 3 1 2 2 3 2
14 15 15 15 16 17 20 22 22 24 27 10 6 2 3 2 1 1 3 5 3 3 1 5 3 6 7 6 5 5 8 7 7 8 6 6 5 4 8 3 2 3 2 3 3 4 2
13 13 15 14 15 18 21 22 23 20 19 13 4 3 3 1 3 3 5 4 3 2 4 5 5 6 3 5 3 6 4 2 7 8 7 6 2 3 9 4 1 2 3 3 2 2 5
12 13 15 16 17 16 19 21 23 22 18 10 3 3 3 3 0 2 3 5 5 3 4 2 3 2 2 3 3 3 3 1 4 4 3 5 4 7 6 7 1 5 4 2 4 2 3
11 12 14 16 17 16 17 21 23 25 19 0 1 3 2 2 1 1 1 2 5 5 2 2 1 4 3 3 2 5 3 3 1 4 4 4 6 5 7 8 3 7 14 7 10 8 6
11 10 12 13 15 16 17 19 22 25 18 2 3 3 4 3 2 3 4 3 2 4 3 5 3 9 1 5 6 12 3 1 7 2 6 2 4 4 4 6 7 6 12 10 11 6 12
10 12 11 12 13 14 17 15 18 21 18 6 6 5 2 4 4 4 2 2 3 9 6 1 8 11 8 9 9 8 11 12 11 7 8 7 5 3 5 2 6 6 14 10 6 5 7
14 15 12 12 12 12 13 13 14 14 15 9 5 5 2 4 3 3 9 12 13 10 12 14 13 8 4 12 11 7 6 9 8 9 7 7 6 4 3 1 7 7 2 3 6 6 10
13 15 16 14 13 13 13 13 13 12 11 10 7 4 2 4 3 8 10 9 12 13 15 16 13 13 11 7 8 7 4 6 6 9 13 7 6 3 3 5 8 12 6 7 8 8 10
13 14 15 15 17 16 15 15 14 14 9 9 10 3 2 4 3 4 3 8 8 8 7 9 4 12 6 4 4 9 7 4 4 2 5 4 3 8 4 4 7 4 4 0 2 5 6
15 15 15 16 17 18 18 17 16 15 10 9 8 8 4 4 8 7 3 3 5 7 6 6 4 7 6 3 6 10 14 3 13 9 5 4 2 11 10 9 8 6 4 1 3 7 5
18 17 18 18 19 19 19 19 19 17 16 13 14 12 9 3 10 17 18 13 6 6 6 6 9 3 2 5 4 6 7 9 11 15 8 12 8 5 5 8 17 9 5 9 5 3 4
18 19 20 21 21 22 21 20 21 21 20 17 12 19 18 10 8 21 24 27 24 24 12 6 9 11 3 3 3 4 4 4 6 16 6 14 14 11 11 8 5 8 6 6 3 5 6
Wind_Direction
52 47 40 33 26 23 17 12 11 7 4 1 356 355 1 347 333 319 309 303 293 284 287 308 333 342 358 8 263 314 327 329 349 12 28 26 49 4 319 300 323 209 265 267 264 281 279
44 38 35 23 21 17 14 11 10 8 4 2 0 7 360 348 338 329 317 307 296 284 279 299 326 341 22 303 271 306 317 311 320 352 357 37 92 233 273 267 269 277 279 284 283 276 264
38 33 26 21 16 17 11 9 9 6 5 5 9 8 358 354 346 340 332 316 297 284 276 285 318 337 76 230 253 298 282 285 297 295 295 270 172 66 349 290 279 276 306 319 272 262 268
32 29 25 20 15 13 10 7 6 5 4 6 9 2 360 355 347 342 338 330 310 286 268 277 309 317 247 258 272 276 277 288 287 270 253 281 241 188 196 298 331 333 359 337 277 269 269
29 25 21 19 16 11 9 7 5 2 2 4 5 1 356 353 348 341 335 323 302 272 259 273 293 110 272 281 265 284 244 267 302 288 263 246 297 313 355 357 354 4 280 272 307 225 277
22 21 15 15 14 10 8 5 4 3 0 360 359 359 353 351 345 343 338 331 270 264 217 198 217 9 272 271 260 258 254 245 302 331 50 96 49 355 353 64 286 282 293 270 268 275 204
25 21 16 15 13 12 12 11 9 5 1 357 354 353 352 350 345 347 353 336 13 6 200 212 191 246 271 297 286 233 195 137 58 77 352 347 15 255 263 214 241 268 264 272 281 286 275
35 32 23 15 17 14 12 10 8 6 2 358 353 351 352 349 349 4 9 68 108 251 314 242 251 275 272 263 307 268 174 296 47 277 291 2 239 243 266 262 252 255 266 277 288 252 263
28 23 21 11 11 9 7 5 3 2 359 358 354 350 350 351 1 18 48 51 356 317 268 300 222 235 249 154 267 267 152 90 261 285 232 189 255 329 245 303 296 237 220 261 260 329 327
3 355 358 355 351 351 351 353 354 355 354 354 353 350 350 352 48 2 49 355 336 326 51 254 256 277 109 113 279 222 193 129 292 280 301 232 286 290 300 280 193 305 201 274 292 10 292
3 355 348 341 344 339 338 339 338 338 341 344 348 348 346 346 332 57 329 337 326 307 20 222 200 159 103 206 310 260 122 64 242 279 54 265 308 342 312 252 114 256 320 291 258 181 34
358 348 339 334 336 335 334 334 332 330 332 336 336 345 340 340 319 325 338 329 351 42 262 293 139 267 330 174 270 149 156 63 230 298 211 254 293 246 238 293 207 290 324 52 45 68 26
26 19 14 5 358 351 345 336 330 327 325 327 329 337 334 318 311 323 337 37 32 137 305 236 252 152 146 270 299 177 314 315 9 18 357 324 271 276 251 326 352 13 14 350 356 2 236
23 17 11 9 4 359 355 350 343 328 323 324 326 331 317 287 274 296 66 49 141 244 234 9 73 320 237 171 249 296 310 304 206 106 68 63 330 3 29 191 293 344 93 127 304 306 291
10 1 4 6 6 5 5 358 346 336 330 324 326 325 306 249 223 180 85 86 218 210 243 205 318 346 290 218 229 1 216 226 216 175 165 90 274 305 221 246 119 349 20 183 251 240 355
17 12 3 0 0 360 357 354 350 343 337 332 326 318 291 187 179 157 91 230 234 217 156 133 206 186 236 231 244 173 225 205 208 190 128 199 305 233 293 352 78 205 213 17 14 336 305
7 1 358 360 358 359 5 2 358 352 348 341 331 349 360 172 167 61 186 226 264 241 181 177 210 235 226 240 204 220 244 263 181 162 132 146 142 287 333 180 164 353 342 59 133 146 243
12 7 4 5 9 5 358 354 350 353 354 356 348 319 359 163 96 250 203 212 245 231 203 245 212 213 205 192 222 230 226 222 168 153 173 203 155 265 250 201 207 191 222 128 115 284 233
10 2 8 7 0 360 359 357 358 355 358 334 313 271 0 157 214 250 293 288 271 244 227 196 238 210 172 212 240 202 222 278 159 160 169 185 205 340 333 14 119 212 208 164 118 92 222
2 4 2 358 353 359 358 356 356 354 348 338 298 324 318 49 32 146 347 286 285 287 270 256 272 142 146 252 238 281 263 279 193 201 173 143 173 193 210 224 143 285 197 163 125 193 238
349 354 348 354 356 356 357 359 358 355 350 185 243 266 276 293 327 266 11 294 304 323 288 272 342 228 198 261 263 233 250 293 228 216 152 156 219 194 256 257 255 256 264 215 200 205 203
328 329 345 344 345 346 349 355 358 360 6 38 333 346 349 295 276 250 207 240 240 305 238 319 275 305 1 246 249 288 256 188 227 156 167 184 256 160 274 275 228 249 261 239 220 217 241
315 316 308 323 330 334 343 353 358 3 17 16 7 356 328 283 324 337 232 276 12 1 283 212 1 325 303 289 281 259 276 264 249 186 198 167 176 155 256 329 309 270 242 211 198 174 170
324 306 303 297 306 325 327 334 343 354 8 13 5 330 344 281 284 277 322 318 309 312 287 301 318 318 330 331 301 282 256 250 225 216 174 169 166 167 262 346 254 251 301 229 219 223 207
312 313 318 304 295 298 311 317 325 328 344 349 349 339 313 284 311 296 286 294 307 299 294 289 282 262 273 294 304 305 317 303 222 218 201 181 153 205 211 211 300 305 270 188 179 258 205
316 316 314 312 311 297 290 296 303 303 298 308 314 317 312 310 251 334 339 309 298 293 294 260 274 286 291 232 196 254 250 235 254 218 31 115 55 209 144 214 250 242 338 194 114 285 214
316 314 313 312 308 306 302 287 289 298 281 273 271 274 231 266 271 263 240 355 332 324 293 301 352 331 323 232 233 243 253 254 246 227 172 139 162 215 217 245 269 238 192 186 159 244 173
310 310 307 306 305 304 301 299 282 280 278 269 270 268 239 242 273 262 272 269 255 240 258 309 328 270 248 248 259 227 243 221 236 238 189 201 175 182 197 227 262 198 97 182 213 325 160
306 304 301 300 298 297 297 294 290 277 273 272 265 274 257 236 257 280 268 261 245 256 265 246 253 285 298 343 312 336 316 336 294 257 214 236 218 226 193 215 226 197 213 231 196 181 188
Height
864 863 862 861 859 857 855 853 850 847 845 842 838 835 833 832 830 829 828 826 825 825 824 823 822 820 819 819 817 813 813 813 813 811 811 811 812 815 815 814 811 809 800 794 789 786 783
866 864 863 862 860 858 855 853 850 848 845 842 838 835 834 832 830 828 827 825 824 823 823 822 821 820 820 822 813 812 812 812 812 812 812 811 811 812 814 811 812 803 800 793 785 780 779
867 865 864 862 860 858 856 853 850 848 845 842 838 836 834 831 829 827 825 824 822 821 821 821 821 820 820 817 811 811 810 810 810 811 811 811 810 811 811 811 805 803 803 792 781 776 774
868 866 864 863 860 859 856 854 851 849 846 842 839 836 833 831 828 826 824 823 822 821 821 821 820 820 819 811 811 810 810 809 808 809 810 810 810 810 810 807 804 805 805 805 779 774 770
869 867 865 863 861 859 857 854 851 849 846 843 839 836 833 830 827 825 823 821 820 820 820 821 821 821 818 810 809 808 808 808 808 808 808 809 810 812 811 813 817 814 815 807 791 771 772
871 868 867 864 862 861 858 855 851 849 846 843 840 836 833 829 826 824 821 819 819 819 819 820 821 826 813 810 808 807 807 807 807 807 808 810 815 818 820 819 820 808 812 804 800 774 772
872 870 869 866 864 861 859 856 852 850 847 843 840 836 832 829 826 823 821 819 822 823 820 815 814 813 810 808 807 806 806 807 807 809 812 811 818 819 808 809 803 803 806 802 781 770 773
873 871 870 868 865 863 860 857 853 850 847 844 840 836 832 828 826 824 822 823 828 831 825 812 813 812 808 808 809 806 807 810 809 813 811 816 818 799 800 801 802 801 803 799 778 769 771
875 873 871 870 866 864 861 857 854 851 847 843 840 836 832 828 826 826 827 829 829 828 830 814 809 809 808 809 809 807 807 809 811 813 809 813 798 796 797 795 795 795 794 789 785 776 769
877 875 872 870 868 864 861 858 855 851 848 844 839 836 832 828 829 828 829 830 829 829 842 814 811 808 808 808 810 805 805 809 810 811 809 811 797 796 795 796 793 797 783 783 783 786 796
877 874 873 871 868 865 861 857 854 851 847 844 840 836 832 829 830 829 831 829 829 831 856 812 809 806 807 811 809 805 806 807 811 808 812 803 797 797 797 789 789 790 781 785 780 783 792
876 874 873 870 867 863 860 856 853 850 846 843 839 836 832 830 830 830 828 828 830 847 847 810 808 808 809 809 807 805 806 807 808 810 811 808 799 796 792 788 788 785 780 782 789 792 802
876 874 872 869 865 862 858 855 851 848 845 841 838 834 831 830 830 829 828 829 848 855 814 809 808 808 812 811 808 807 807 811 814 823 819 811 797 791 789 791 785 790 794 806 794 809 794
876 874 872 868 865 862 858 854 850 847 843 839 836 832 829 829 828 828 828 837 846 822 817 805 808 810 812 809 809 807 810 816 810 815 835 838 814 790 790 791 794 798 800 829 805 814 805
878 876 873 868 865 861 858 853 849 845 841 838 834 829 826 827 827 828 832 858 837 821 805 808 808 812 810 809 812 810 812 815 810 812 814 827 810 792 790 789 793 792 805 799 804 808 830
877 875 874 871 866 862 858 854 849 845 841 838 833 830 826 825 826 828 836 832 818 808 805 806 810 811 812 809 811 811 811 804 803 808 807 812 822 796 793 790 793 794 798 808 817 807 794
880 878 874 871 868 864 859 855 851 846 840 837 834 832 827 826 828 831 841 831 813 804 803 808 808 810 812 807 812 812 806 801 801 807 807 813 820 803 795 793 795 800 801 802 810 817 811
880 878 875 872 869 865 861 857 853 848 841 836 837 840 828 827 833 837 829 817 805 802 804 806 806 807 808 808 808 813 808 800 799 803 809 811 824 830 798 790 792 791 793 800 814 807 815
880 879 875 873 870 867 862 858 853 850 848 845 840 837 828 826 836 835 824 814 807 804 806 806 807 807 805 806 808 807 801 794 799 801 808 811 820 835 802 796 791 791 792 793 803 811 809
882 880 877 874 871 867 863 859 854 850 846 846 842 842 832 829 834 828 826 821 815 804 805 806 804 805 807 807 808 802 801 796 800 799 799 802 818 807 810 794 794 795 795 793 800 827 802
882 880 878 875 872 869 864 860 855 850 844 845 841 839 835 834 831 830 828 824 821 819 808 805 804 807 808 810 805 808 803 799 801 798 803 806 813 822 808 804 803 801 795 800 804 800 799
882 880 878 875 872 869 866 862 858 851 844 844 844 843 839 837 830 831 828 825 817 816 814 811 809 807 809 812 805 802 802 803 800 805 808 812 809 815 807 796 802 798 790 791 791 789 790
879 878 876 874 872 868 867 863 860 856 850 850 849 848 846 836 834 833 826 823 821 823 813 812 819 817 813 809 803 802 801 800 797 800 809 814 814 817 805 799 800 794 770 771 768 771 769
876 876 874 872 870 867 865 864 861 860 857 855 855 852 851 841 836 834 831 831 828 829 828 822 820 821 809 807 800 795 795 794 794 794 794 806 810 812 813 799 801 756 752 753 751 752 759
875 874 872 869 867 866 863 862 860 860 859 856 855 855 852 846 843 840 837 834 832 829 827 823 820 816 811 810 806 798 791 787 785 785 788 789 798 799 805 808 775 756 748 759 757 742 744
871 871 870 868 866 863 861 860 858 858 857 856 855 854 855 852 843 840 841 840 840 833 824 815 814 811 809 806 804 794 787 781 777 781 790 793 792 781 809 796 774 750 745 745 742 750 732
869 867 866 865 863 861 858 857 856 855 854 854 852 851 852 851 841 839 841 839 839 836 830 822 819 815 809 799 798 791 783 773 765 772 792 795 799 786 782 772 766 750 742 747 750 737 731
866 865 863 861 859 857 855 853 851 851 850 850 848 847 848 845 837 834 836 839 838 836 835 825 822 809 808 801 787 778 772 761 760 751 776 768 787 789 779 776 756 740 747 748 729 729 730
862 861 858 856 854 852 850 848 847 845 844 844 843 842 842 840 831 828 829 828 826 826 827 825 822 818 811 808 792 793 776 771 761 745 749 751 742 743 755 743 731 735 728 727 729 728 730